Location: LDNL
(36.4545°S, 141.6685°E)
Time: 13:47:03
(UTC+11:00)

Courier 1B Rocket - Pass Details

Date: 07 February 2023
Orbit: 920 x 1202 km, 28.2° (Epoch: 25 March)

Event Time Altitude Azimuth Distance (km) Brightness Sun altitude
Rises 07:48:05 0° 276° (W) 4,073 7.6 9.3°
Reaches altitude 10° 07:51:04 10° 283° (WNW) 3,128 7.1 9.9°
Maximum altitude 07:58:20 42° 350° (N) 1,649 6.2 11.3°
Drops below altitude 10° 08:05:33 10° 58° (ENE) 3,107 8.5 12.7°
Sets 08:08:30 0° 64° (ENE) 4,043 9.2 13.3°
